Time,TemperatureF,DewpointF,PressureIn,WindDirection,WindDirectionDegrees,WindSpeedMPH,WindSpeedGustMPH,Humidity,HourlyPrecipIn,Conditions,Clouds,dailyrainin,SoftwareType,DateUTC
2013-02-24 00:00:00,48.9,30.0,30.20,NE,47,6.0,8.0,48,0.00,,,0.00,weatherlink.com 1.10,2013-02-24 08:00:00,
2013-02-24 00:15:00,48.3,31.0,30.20,NNE,12,4.0,12.0,52,0.00,,,0.00,weatherlink.com 1.10,2013-02-24 08:15:00,
2013-02-24 00:30:00,47.5,32.0,30.20,NNE,18,5.0,11.0,55,0.00,,,0.00,weatherlink.com 1.10,2013-02-24 08:30:00,
2013-02-24 00:45:00,47.0,32.0,30.21,NE,35,5.0,12.0,56,0.00,,,0.00,weatherlink.com 1.10,2013-02-24 08:45:00,
2013-02-24 01:00:00,47.1,31.0,30.21,North,9,4.0,10.0,55,0.00,,,0.00,weatherlink.com 1.10,2013-02-24 09:00:00,
2013-02-24 01:15:00,47.2,29.0,30.21,NNE,27,0.0,8.0,50,0.00,,,0.00,weatherlink.com 1.10,2013-02-24 09:15:00,
2013-02-24 01:30:00,46.1,31.0,30.21,NE,39,4.0,6.0,55,0.00,,,0.00,weatherlink.com 1.10,2013-02-24 09:30:00,
2013-02-24 01:45:00,45.5,27.0,30.22,NNE,21,0.0,4.0,49,0.00,,,0.00,weatherlink.com 1.10,2013-02-24 09:45:00,
2013-02-24 02:00:00,45.5,29.0,30.22,NNW,346,1.0,4.0,52,0.00,,,0.00,weatherlink.com 1.10,2013-02-24 10:00:00,
2013-02-24 02:15:00,45.0,29.0,30.20,ENE,60,1.0,4.0,54,0.00,,,0.00,weatherlink.com 1.10,2013-02-24 10:15:00,
2013-02-24 02:30:00,45.6,27.0,30.20,NNE,15,0.0,7.0,48,0.00,,,0.00,weatherlink.com 1.10,2013-02-24 10:30:00,
2013-02-24 02:45:00,47.4,25.0,30.20,NE,56,1.0,5.0,42,0.00,,,0.00,weatherlink.com 1.10,2013-02-24 10:45:00,
2013-02-24 03:00:00,47.9,24.0,30.19,NNW,343,3.0,4.0,40,0.00,,,0.00,weatherlink.com 1.10,2013-02-24 11:00:00,
2013-02-24 03:15:00,49.0,23.0,30.19,NNE,19,2.0,6.0,36,0.00,,,0.00,weatherlink.com 1.10,2013-02-24 11:15:00,
2013-02-24 03:30:00,49.7,21.0,30.19,NE,44,2.0,8.0,33,0.00,,,0.00,weatherlink.com 1.10,2013-02-24 11:30:00,
2013-02-24 03:45:00,49.7,21.0,30.18,ENE,75,1.0,8.0,33,0.00,,,0.00,weatherlink.com 1.10,2013-02-24 11:45:00,
2013-02-24 04:00:00,50.0,21.0,30.19,NE,39,4.0,9.0,32,0.00,,,0.00,weatherlink.com 1.10,2013-02-24 12:00:00,
2013-02-24 04:15:00,50.3,21.0,30.18,NE,40,1.0,5.0,31,0.00,,,0.00,weatherlink.com 1.10,2013-02-24 12:15:00,
2013-02-24 04:30:00,50.1,21.0,30.18,NNE,17,2.0,5.0,32,0.00,,,0.00,weatherlink.com 1.10,2013-02-24 12:30:00,
2013-02-24 04:45:00,50.3,21.0,30.18,ENE,67,3.0,7.0,31,0.00,,,0.00,weatherlink.com 1.10,2013-02-24 12:45:00,
2013-02-24 05:00:00,50.3,21.0,30.18,NE,36,2.0,11.0,32,0.00,,,0.00,weatherlink.com 1.10,2013-02-24 13:00:00,
2013-02-24 05:15:00,49.9,21.0,30.18,NE,37,3.0,6.0,32,0.00,,,0.00,weatherlink.com 1.10,2013-02-24 13:15:00,
2013-02-24 05:30:00,49.9,22.0,30.18,NE,45,4.0,11.0,33,0.00,,,0.00,weatherlink.com 1.10,2013-02-24 13:30:00,
2013-02-24 05:46:00,49.7,22.0,30.19,NNE,16,7.0,11.0,34,0.00,,,0.00,weatherlink.com 1.10,2013-02-24 13:46:00,
2013-02-24 06:01:00,49.9,22.0,30.19,North,11,4.0,10.0,33,0.00,,,0.00,weatherlink.com 1.10,2013-02-24 14:01:00,
2013-02-24 06:16:00,50.4,21.0,30.19,NNW,327,5.0,14.0,31,0.00,,,0.00,weatherlink.com 1.10,2013-02-24 14:16:00,
2013-02-24 06:31:00,50.5,21.0,30.19,ENE,78,8.0,14.0,31,0.00,,,0.00,weatherlink.com 1.10,2013-02-24 14:31:00,
2013-02-24 06:46:00,50.5,20.0,30.19,ENE,62,1.0,11.0,30,0.00,,,0.00,weatherlink.com 1.10,2013-02-24 14:46:00,
2013-02-24 07:01:00,50.6,21.0,30.20,North,9,4.0,8.0,31,0.00,,,0.00,weatherlink.com 1.10,2013-02-24 15:01:00,
2013-02-24 07:16:00,50.7,21.0,30.20,North,357,0.0,9.0,31,0.00,,,0.00,weatherlink.com 1.10,2013-02-24 15:16:00,
2013-02-24 07:31:00,51.4,20.0,30.20,NNE,22,6.0,8.0,29,0.00,,,0.00,weatherlink.com 1.10,2013-02-24 15:31:00,
2013-02-24 07:46:00,52.6,19.0,30.20,NE,34,1.0,8.0,27,0.00,,,0.00,weatherlink.com 1.10,2013-02-24 15:46:00,
2013-02-24 08:01:00,52.8,20.0,30.20,WSW,247,0.0,9.0,28,0.00,,,0.00,weatherlink.com 1.10,2013-02-24 16:01:00,
2013-02-24 08:16:00,51.4,26.0,30.20,SSE,165,1.0,3.0,37,0.00,,,0.00,weatherlink.com 1.10,2013-02-24 16:16:00,
2013-02-24 08:31:00,51.2,25.0,30.20,SW,221,0.0,3.0,36,0.00,,,0.00,weatherlink.com 1.10,2013-02-24 16:31:00,
2013-02-24 08:46:00,51.9,26.0,30.21,SSE,158,0.0,3.0,37,0.00,,,0.00,weatherlink.com 1.10,2013-02-24 16:46:00,
2013-02-24 09:01:00,52.8,24.0,30.21,South,191,0.0,1.0,32,0.00,,,0.00,weatherlink.com 1.10,2013-02-24 17:01:00,
2013-02-24 09:16:00,53.8,25.0,30.21,NE,46,0.0,4.0,33,0.00,,,0.00,weatherlink.com 1.10,2013-02-24 17:16:00,
2013-02-24 09:31:00,54.7,25.0,30.21,SSW,212,0.0,3.0,32,0.00,,,0.00,weatherlink.com 1.10,2013-02-24 17:31:00,
2013-02-24 09:46:00,55.8,25.0,30.21,SW,218,0.0,3.0,30,0.00,,,0.00,weatherlink.com 1.10,2013-02-24 17:46:00,
2013-02-24 10:01:00,57.4,25.0,30.20,SW,214,1.0,3.0,29,0.00,,,0.00,weatherlink.com 1.10,2013-02-24 18:01:00,
2013-02-24 10:16:00,58.8,23.0,30.20,SSE,166,0.0,2.0,25,0.00,,,0.00,weatherlink.com 1.10,2013-02-24 18:16:00,
2013-02-24 10:31:00,60.6,24.0,30.20,West,277,0.0,3.0,25,0.00,,,0.00,weatherlink.com 1.10,2013-02-24 18:31:00,
2013-02-24 10:46:00,60.9,25.0,30.20,NNE,25,0.0,4.0,25,0.00,,,0.00,weatherlink.com 1.10,2013-02-24 18:46:00,
2013-02-24 11:01:00,61.9,24.0,30.20,SSW,198,0.0,1.0,23,0.00,,,0.00,weatherlink.com 1.10,2013-02-24 19:01:00,
2013-02-24 11:16:00,62.6,22.0,30.19,NE,56,0.0,4.0,21,0.00,,,0.00,weatherlink.com 1.10,2013-02-24 19:16:00,
2013-02-24 11:31:00,63.9,25.0,30.19,NNE,28,0.0,1.0,23,0.00,,,0.00,weatherlink.com 1.10,2013-02-24 19:31:00,
2013-02-24 11:46:00,63.4,23.0,30.18,NNW,336,0.0,6.0,21,0.00,,,0.00,weatherlink.com 1.10,2013-02-24 19:46:00,
2013-02-24 12:01:00,64.8,27.0,30.18,NNW,347,0.0,3.0,24,0.00,,,0.00,weatherlink.com 1.10,2013-02-24 20:01:00,
2013-02-24 12:16:00,65.1,26.0,30.17,SE,130,0.0,6.0,23,0.00,,,0.00,weatherlink.com 1.10,2013-02-24 20:16:00,
2013-02-24 12:31:00,65.4,29.0,30.17,NE,55,0.0,3.0,25,0.00,,,0.00,weatherlink.com 1.10,2013-02-24 20:31:00,
2013-02-24 12:46:00,66.7,30.0,30.16,North,359,3.0,5.0,25,0.00,,,0.00,weatherlink.com 1.10,2013-02-24 20:46:00,
2013-02-24 13:01:00,66.4,25.0,30.16,North,357,3.0,8.0,21,0.00,,,0.00,weatherlink.com 1.10,2013-02-24 21:01:00,
2013-02-24 13:17:00,66.9,28.0,30.15,SSW,210,1.0,4.0,23,0.00,,,0.00,weatherlink.com 1.10,2013-02-24 21:17:00,
2013-02-24 13:32:00,66.4,28.0,30.14,ESE,106,0.0,3.0,24,0.00,,,0.00,weatherlink.com 1.10,2013-02-24 21:32:00,
2013-02-24 13:47:00,67.3,27.0,30.14,NE,42,0.0,4.0,22,0.00,,,0.00,weatherlink.com 1.10,2013-02-24 21:47:00,
2013-02-24 14:02:00,69.2,26.0,30.14,SW,224,0.0,4.0,20,0.00,,,0.00,weatherlink.com 1.10,2013-02-24 22:02:00,
2013-02-24 14:17:00,68.4,28.0,30.13,NNE,26,2.0,3.0,22,0.00,,,0.00,weatherlink.com 1.10,2013-02-24 22:17:00,
2013-02-24 14:32:00,68.7,28.0,30.13,East,96,0.0,4.0,22,0.00,,,0.00,weatherlink.com 1.10,2013-02-24 22:32:00,
2013-02-24 14:47:00,69.1,35.0,30.13,NE,56,0.0,7.0,28,0.00,,,0.00,weatherlink.com 1.10,2013-02-24 22:47:00,
2013-02-24 15:02:00,69.5,32.0,30.12,SSW,208,1.0,5.0,25,0.00,,,0.00,weatherlink.com 1.10,2013-02-24 23:02:00,
2013-02-24 15:17:00,68.8,35.0,30.12,NE,50,0.0,3.0,29,0.00,,,0.00,weatherlink.com 1.10,2013-02-24 23:17:00,
2013-02-24 15:32:00,66.8,36.0,30.12,North,2,1.0,6.0,32,0.00,,,0.00,weatherlink.com 1.10,2013-02-24 23:32:00,
2013-02-24 15:47:00,65.6,34.0,30.12,NNE,31,3.0,6.0,31,0.00,,,0.00,weatherlink.com 1.10,2013-02-24 23:47:00,
2013-02-24 16:02:00,64.3,34.0,30.12,SSW,202,0.0,4.0,32,0.00,,,0.00,weatherlink.com 1.10,2013-02-25 00:02:00,
2013-02-24 16:17:00,62.3,35.0,30.12,North,360,0.0,4.0,36,0.00,,,0.00,weatherlink.com 1.10,2013-02-25 00:17:00,
2013-02-24 16:32:00,60.3,35.0,30.12,NE,39,2.0,5.0,39,0.00,,,0.00,weatherlink.com 1.10,2013-02-25 00:32:00,
2013-02-24 16:47:00,58.8,37.0,30.13,East,82,0.0,8.0,44,0.00,,,0.00,weatherlink.com 1.10,2013-02-25 00:47:00,
2013-02-24 17:02:00,57.8,35.0,30.13,ENE,66,1.0,7.0,43,0.00,,,0.00,weatherlink.com 1.10,2013-02-25 01:02:00,
2013-02-24 17:17:00,57.3,36.0,30.12,ENE,78,0.0,3.0,45,0.00,,,0.00,weatherlink.com 1.10,2013-02-25 01:17:00,
2013-02-24 17:32:00,55.9,37.0,30.12,East,90,0.0,4.0,49,0.00,,,0.00,weatherlink.com 1.10,2013-02-25 01:32:00,
2013-02-24 17:47:00,53.9,37.0,30.12,East,91,0.0,0.0,53,0.00,,,0.00,weatherlink.com 1.10,2013-02-25 01:47:00,
2013-02-24 18:02:00,52.0,37.0,30.12,South,186,0.0,1.0,56,0.00,,,0.00,weatherlink.com 1.10,2013-02-25 02:02:00,
2013-02-24 18:17:00,51.9,36.0,30.13,NE,46,0.0,1.0,54,0.00,,,0.00,weatherlink.com 1.10,2013-02-25 02:17:00,
2013-02-24 18:32:00,50.5,34.0,30.13,SSW,207,0.0,1.0,54,0.00,,,0.00,weatherlink.com 1.10,2013-02-25 02:32:00,
2013-02-24 18:47:00,49.8,34.0,30.13,WSW,251,1.0,1.0,54,0.00,,,0.00,weatherlink.com 1.10,2013-02-25 02:47:00,
2013-02-24 19:02:00,49.3,33.0,30.14,West,263,0.0,1.0,54,0.00,,,0.00,weatherlink.com 1.10,2013-02-25 03:02:00,
2013-02-24 19:17:00,47.9,34.0,30.14,WSW,239,0.0,0.0,59,0.00,,,0.00,weatherlink.com 1.10,2013-02-25 03:17:00,
2013-02-24 19:32:00,46.6,35.0,30.14,West,274,0.0,1.0,64,0.00,,,0.00,weatherlink.com 1.10,2013-02-25 03:32:00,
2013-02-24 19:47:00,45.7,34.0,30.14,South,181,0.0,0.0,65,0.00,,,0.00,weatherlink.com 1.10,2013-02-25 03:47:00,
2013-02-24 20:02:00,44.3,34.0,30.15,South,181,0.0,0.0,67,0.00,,,0.00,weatherlink.com 1.10,2013-02-25 04:02:00,
2013-02-24 20:17:00,43.0,33.0,30.14,South,181,0.0,0.0,69,0.00,,,0.00,weatherlink.com 1.10,2013-02-25 04:17:00,
2013-02-24 20:32:00,42.4,34.0,30.15,South,181,0.0,0.0,73,0.00,,,0.00,weatherlink.com 1.10,2013-02-25 04:32:00,
2013-02-24 20:47:00,41.9,34.0,30.16,South,181,0.0,0.0,74,0.00,,,0.00,weatherlink.com 1.10,2013-02-25 04:47:00,
2013-02-24 21:02:00,40.7,33.0,30.16,South,181,0.0,0.0,75,0.00,,,0.00,weatherlink.com 1.10,2013-02-25 05:02:00,
2013-02-24 21:17:00,40.0,34.0,30.16,South,181,0.0,0.0,80,0.00,,,0.00,weatherlink.com 1.10,2013-02-25 05:17:00,
2013-02-24 21:32:00,40.0,34.0,30.17,South,181,0.0,0.0,79,0.00,,,0.00,weatherlink.com 1.10,2013-02-25 05:32:00,
2013-02-24 21:48:00,39.5,35.0,30.17,South,181,0.0,0.0,84,0.00,,,0.00,weatherlink.com 1.10,2013-02-25 05:48:00,
2013-02-24 22:03:00,39.8,35.0,30.17,South,181,0.0,0.0,83,0.00,,,0.00,weatherlink.com 1.10,2013-02-25 06:03:00,
2013-02-24 22:18:00,39.3,34.0,30.18,South,181,0.0,0.0,82,0.00,,,0.00,weatherlink.com 1.10,2013-02-25 06:18:00,
2013-02-24 22:33:00,39.0,35.0,30.17,South,181,0.0,0.0,84,0.00,,,0.00,weatherlink.com 1.10,2013-02-25 06:33:00,
2013-02-24 22:48:00,38.7,34.0,30.18,South,181,0.0,0.0,84,0.00,,,0.00,weatherlink.com 1.10,2013-02-25 06:48:00,
2013-02-24 23:03:00,38.3,34.0,30.18,South,181,0.0,0.0,85,0.00,,,0.00,weatherlink.com 1.10,2013-02-25 07:03:00,
2013-02-24 23:18:00,38.3,34.0,30.19,South,181,0.0,0.0,85,0.00,,,0.00,weatherlink.com 1.10,2013-02-25 07:18:00,
2013-02-24 23:33:00,37.8,34.0,30.19,South,181,0.0,0.0,85,0.00,,,0.00,weatherlink.com 1.10,2013-02-25 07:33:00,
2013-02-24 23:48:00,37.5,34.0,30.19,South,181,0.0,0.0,87,0.00,,,0.00,weatherlink.com 1.10,2013-02-25 07:48:00,